[[{"header":{"parameterUnit":"m.s-1","parameterCategory":1,"la1":30.2991,"la2":30.254,"lo1":-89.0895,"lo2":-89.0444,"dy":0.0017,"dx":0.0017,"nx":28,"ny":28,"refTime":"2025-04-15T03:00:00:Z","depth":0,"parameterNumber":2,"parameterNumberName":"U-component_of_WINDS"},"data":[0,0,0,0,0,0,0,0,0,0,0,0,0,0,0,0,0,0,0,0,0,0,0,0,0,0,0,0,0,0,0,0,0,0,0,0,0,0,0,0,0,0,0,0,0,0,0,0,0,0,0,0,0,0,0,0,0,0,-0.1762,-0.1761,0,-0.1665,-0.1664,-0.1663,-0.1562,-0.156,-0.1559,-0.1558,-0.1459,-0.1457,-0.1456,0,0,0,0,0,0,0,0,0,0,0,0,0,-0.1862,-0.1861,-0.1762,-0.1761,-0.1759,-0.1665,-0.1664,-0.1662,-0.1562,-0.156,-0.1558,-0.1557,-0.1459,-0.1458,-0.1456,0,0,0,0,0,0,0,0,0,0,0,0,0,-0.1797,-0.186,-0.1762,-0.1698,-0.1691,-0.1665,-0.1664,-0.1662,-0.1562,-0.156,-0.1558,-0.1556,-0.146,-0.1458,-0.1456,-0.1485,0,0,-0.145,-0.1449,0,0,0,0,0,0,0,0,-0.1801,-0.1794,-0.1709,-0.1702,-0.1695,-0.1623,-0.1663,-0.1603,-0.1563,-0.1611,-0.1557,-0.1555,-0.1515,-0.1508,-0.1495,-0.1481,-0.1477,-0.1449,-0.1448,-0.1447,-0.1447,0,0,0,0,0,0,0,-0.1806,-0.1797,-0.1723,-0.1708,-0.1699,-0.1675,-0.1663,-0.1651,-0.1576,-0.1607,-0.1599,-0.1589,-0.1511,-0.1497,-0.1492,-0.1475,-0.145,-0.1448,-0.1447,-0.1446,-0.1483,-0.1485,0,0,0,0,0,0,-0.182,-0.1802,-0.1727,-0.1721,-0.1744,-0.1675,-0.1662,-0.1648,-0.1576,-0.1563,-0.1591,-0.1585,-0.1501,-0.1494,-0.1488,-0.1519,-0.1447,-0.1446,-0.1444,-0.1481,-0.1483,-0.1486,0,0,0,0,0,0,-0.1822,-0.1814,-0.173,-0.1759,-0.1747,-0.1675,-0.1661,-0.1647,-0.1633,-0.1564,-0.155,-0.159,-0.15,-0.1491,-0.1487,-0.1514,-0.1445,-0.1443,-0.1478,-0.1481,-0.1484,-0.1581,0,0,0,0,0,0,-0.1826,-0.1816,-0.1825,-0.176,-0.1745,-0.1731,-0.1662,-0.1647,-0.163,-0.1621,-0.156,-0.1548,-0.1497,-0.1491,-0.1485,-0.151,-0.1441,-0.1475,-0.148,-0.1483,-0.1575,-0.1587,-0.1598,0,0,0,0,0,-0.183,-0.1856,-0.1826,-0.1818,-0.1756,-0.1733,-0.1724,-0.1666,-0.1633,-0.1643,-0.1599,-0.155,-0.1512,-0.1491,-0.1484,-0.1509,-0.1473,-0.1478,-0.1483,-0.157,-0.1585,-0.1598,0,0,0,0,0,0,-0.1926,-0.1846,-0.1812,-0.1819,-0.1783,-0.1716,-0.1726,-0.1683,-0.1656,-0.1649,-0.1577,-0.1564,-0.157,-0.1539,-0.1517,-0.1535,-0.1486,-0.149,-0.1555,-0.1568,-0.1579,-0.1587,-0.144,0,0,0,0,0,-0.1949,-0.1936,-0.1867,-0.1879,-0.1863,-0.1798,-0.1786,-0.1744,-0.1704,-0.1689,-0.1644,-0.1608,-0.1588,-0.1576,-0.1554,-0.1571,-0.1557,-0.1584,-0.1596,-0.1605,-0.1609,-0.1618,-0.163,-0.1502,-0.1502,-0.1502,0,0,-0.1994,-0.1949,-0.1945,-0.1897,-0.1865,-0.1854,-0.1786,-0.1777,-0.1768,-0.1687,-0.1681,-0.1648,-0.1603,-0.161,-0.1611,-0.1585,-0.1642,-0.1612,-0.162,-0.1618,-0.1624,-0.1636,-0.1647,-0.1505,-0.1504,-0.1504,0,0,-0.2071,-0.2035,-0.2042,-0.2012,-0.1964,-0.1921,-0.1923,-0.1862,-0.1837,-0.183,-0.1769,-0.1759,-0.1726,-0.1697,-0.1678,-0.1747,-0.1702,-0.1742,-0.1801,-0.1809,-0.1819,-0.1828,-0.1854,-0.1864,-0.1746,-0.1746,-0.1747,0,-0.2133,-0.2114,-0.2051,-0.2046,-0.2028,-0.1955,-0.1962,-0.1935,-0.1883,-0.1872,-0.1844,-0.1802,-0.1767,-0.1767,-0.1784,-0.1771,-0.1772,-0.1748,-0.1823,-0.1831,-0.1838,-0.1862,-0.1872,-0.1752,-0.1751,-0.1751,-0.175,0,-0.2194,-0.2182,-0.2193,-0.2145,-0.2128,-0.2129,-0.2068,-0.2058,-0.2018,-0.1979,-0.1974,-0.1929,-0.1898,-0.1895,-0.1855,-0.189,-0.1876,-0.1836,-0.1785,-0.1857,-0.1878,-0.1886,-0.1759,-0.1757,-0.1756,-0.1754,0,0,-0.2328,-0.2246,-0.2252,-0.223,-0.2173,-0.2162,-0.2161,-0.2131,-0.2124,-0.2091,-0.2089,-0.2065,-0.2028,-0.2007,-0.1964,-0.1972,-0.2032,-0.1931,-0.1929,-0.1952,-0.2069,-0.2099,-0.2111,-0.2002,-0.2003,-0.2004,-0.2073,0,-0.2395,-0.2388,-0.2333,-0.2342,-0.2331,-0.2262,-0.2262,-0.2227,-0.2191,-0.2177,-0.2137,-0.2121,-0.2074,-0.2061,-0.2066,-0.2024,-0.2054,-0.2018,-0.2,-0.2,-0.2013,-0.2121,-0.2153,-0.222,-0.2081,-0.2082,-0.2083,0,-0.2473,-0.2445,-0.2454,-0.2398,-0.2392,-0.2392,-0.236,-0.2347,-0.2308,-0.2281,-0.2259,-0.2211,-0.2207,-0.2161,-0.2155,-0.2132,-0.2121,-0.21,-0.2101,-0.2097,-0.2046,-0.2121,-0.224,-0.225,-0.2095,-0.2094,-0.2093,0,-0.2571,-0.2536,-0.2537,-0.252,-0.2455,-0.2457,-0.2431,-0.2389,-0.2375,-0.2348,-0.2338,-0.2311,-0.2297,-0.2277,-0.2224,-0.2194,-0.2226,-0.2173,-0.2204,-0.2206,-0.2213,-0.2213,-0.2332,-0.2207,-0.2206,-0.2206,-0.2206,0,-0.2652,-0.266,-0.258,-0.2581,-0.2588,-0.2525,-0.2535,-0.2502,-0.2466,-0.246,-0.2399,-0.2395,-0.2325,-0.2313,-0.2271,-0.2274,-0.2268,-0.2247,-0.2236,-0.2252,-0.2255,-0.2244,-0.2239,-0.2209,-0.2208,-0.2208,-0.2207,0,-0.2762,-0.2709,-0.2706,-0.2645,-0.263,-0.2639,-0.2588,-0.2586,-0.2547,-0.2541,-0.2535,-0.2474,-0.2457,-0.2403,-0.2372,-0.2344,-0.236,-0.2339,-0.2374,-0.2367,-0.2401,-0.2399,-0.2517,-0.253,-0.2396,-0.2397,-0.2398,0,-0.2818,-0.2823,-0.2763,-0.2755,-0.2731,-0.2718,-0.2704,-0.2643,-0.263,-0.2587,-0.2592,-0.257,-0.2549,-0.2526,-0.248,-0.2456,-0.2434,-0.2477,-0.243,-0.2448,-0.2436,-0.2436,-0.2437,-0.2488,-0.2489,-0.2491,-0.2492,0,-0.2922,-0.2896,-0.2877,-0.2851,-0.2835,-0.2811,-0.2783,-0.278,-0.2712,-0.2702,-0.2684,-0.2668,-0.2638,-0.2618,-0.2588,-0.2561,-0.2516,-0.2508,-0.2513,-0.253,-0.2551,-0.2541,-0.2402,-0.2505,-0.2504,-0.2503,-0.2502,-0.2501,-0.3007,-0.3009,-0.2968,-0.295,-0.2923,-0.2899,-0.2896,-0.2857,-0.2841,-0.2811,-0.2776,-0.2764,-0.2726,-0.2681,-0.2658,-0.2647,-0.2623,-0.2631,-0.2633,-0.2636,-0.2645,-0.2553,-0.2642,-0.2641,-0.2641,-0.264,-0.264,0,-0.3109,-0.308,-0.3064,-0.3028,-0.3014,-0.2973,-0.2941,-0.2933,-0.2922,-0.2891,-0.2872,-0.2853,-0.2834,-0.2787,-0.2763,-0.2764,-0.2743,-0.2761,-0.276,-0.2755,-0.2668,-0.2665,-0.2778,-0.2778,-0.2778,-0.2778,-0.2778,-0.2778,-0.3161,-0.3162,-0.3132,-0.312,-0.309,-0.3077,-0.3063,-0.3041,-0.3016,-0.2997,-0.2981,-0.2951,-0.2913,-0.2887,-0.2869,-0.2855,-0.285,-0.2874,-0.2854,-0.2774,-0.2761,-0.2748,-0.2745,-0.2873,-0.2873,-0.2942,-0.2943,-0.2943]},{"header":{"parameterUnit":"m.s-1","parameterCategory":1,"la1":30.2991,"la2":30.254,"lo1":-89.0895,"lo2":-89.0444,"dy":0.0017,"dx":0.0017,"nx":28,"ny":28,"refTime":"2025-04-15T03:00:00:Z","depth":0,"parameterNumber":3,"parameterNumberName":"V-component_of_WINDS"},"data":[0,0,0,0,0,0,0,0,0,0,0,0,0,0,0,0,0,0,0,0,0,0,0,0,0,0,0,0,0,0,0,0,0,0,0,0,0,0,0,0,0,0,0,0,0,0,0,0,0,0,0,0,0,0,0,0,0,0,3.1147,3.1147,0,3.115,3.115,3.115,3.1193,3.1194,3.1195,3.1196,3.1194,3.1193,3.1192,0,0,0,0,0,0,0,0,0,0,0,0,0,3.1173,3.1172,3.1147,3.1147,3.1147,3.115,3.115,3.115,3.1193,3.1194,3.1196,3.1197,3.1195,3.1193,3.1192,0,0,0,0,0,0,0,0,0,0,0,0,0,3.1167,3.1172,3.1147,3.1169,3.1171,3.115,3.115,3.115,3.1193,3.1194,3.1196,3.1197,3.1195,3.1193,3.1192,3.1149,0,0,3.1187,3.1186,0,0,0,0,0,0,0,0,3.1168,3.1166,3.1166,3.1167,3.1169,3.1173,3.1159,3.115,3.1192,3.1184,3.1196,3.1198,3.1185,3.1185,3.1182,3.1149,3.1149,3.1187,3.1186,3.1185,3.1185,0,0,0,0,0,0,0,3.1168,3.1166,3.1148,3.1165,3.1168,3.1177,3.1178,3.1157,3.1175,3.1185,3.1188,3.1188,3.1187,3.1183,3.1182,3.1149,3.1187,3.1185,3.1184,3.1184,3.108,3.1078,0,0,0,0,0,0,3.1166,3.1167,3.1148,3.1148,3.1173,3.1175,3.1176,3.117,3.1176,3.1178,3.1187,3.119,3.1185,3.1184,3.1182,3.1131,3.1185,3.1184,3.1183,3.1081,3.1079,3.1077,0,0,0,0,0,0,3.1166,3.1164,3.1148,3.1158,3.1157,3.1173,3.1166,3.1169,3.1166,3.1177,3.118,3.118,3.1186,3.1184,3.1157,3.1132,3.1183,3.1181,3.1084,3.1081,3.1078,3.1029,0,0,0,0,0,0,3.1167,3.1164,3.1149,3.1158,3.1156,3.1124,3.1164,3.1168,3.1163,3.1168,3.1171,3.1174,3.1187,3.1159,3.1155,3.113,3.118,3.1086,3.1082,3.1079,3.1033,3.1025,3.1018,0,0,0,0,0,3.1168,3.1134,3.1148,3.1145,3.1138,3.1122,3.1121,3.114,3.1161,3.1145,3.1153,3.1173,3.1135,3.1156,3.1152,3.1126,3.1087,3.1083,3.1079,3.1036,3.1027,3.1019,0,0,0,0,0,0,3.1119,3.1135,3.1151,3.1119,3.1119,3.113,3.111,3.1129,3.1122,3.1126,3.1147,3.1148,3.1116,3.1119,3.1141,3.1084,3.1115,3.111,3.1084,3.1075,3.1067,3.1066,3.1179,0,0,0,0,0,3.1106,3.1093,3.1107,3.1078,3.1077,3.1094,3.1088,3.1102,3.1102,3.1102,3.1107,3.1105,3.1093,3.1084,3.1074,3.1034,3.1035,3.1015,3.1007,3.1001,3.0996,3.0974,3.0965,3.1064,3.1064,3.1064,0,0,3.1075,3.1083,3.1073,3.1068,3.107,3.1055,3.1093,3.1076,3.1065,3.1099,3.1073,3.1077,3.1077,3.1043,3.1028,3.1044,3.0969,3.0996,3.0991,3.0989,3.0969,3.0959,3.0951,3.1061,3.1062,3.1062,0,0,3.1013,3.1018,3.0994,3.0995,3.0998,3.101,3.1004,3.1012,3.1016,3.0992,3.1017,3.1003,3.0982,3.098,3.0976,3.0914,3.0932,3.091,3.0871,3.0849,3.0841,3.0834,3.0811,3.0802,3.0905,3.0905,3.0905,0,3.0975,3.0955,3.0978,3.096,3.0956,3.0989,3.0963,3.0963,3.0961,3.0957,3.0975,3.0949,3.0951,3.0917,3.0902,3.0898,3.0891,3.0909,3.0841,3.0834,3.0828,3.0806,3.0797,3.0902,3.0903,3.0903,3.0903,0,3.0908,3.0894,3.0873,3.0873,3.0867,3.0845,3.0863,3.0854,3.0869,3.0878,3.0852,3.0856,3.0846,3.084,3.0853,3.0807,3.0817,3.0838,3.0868,3.0815,3.0795,3.0786,3.0898,3.0899,3.09,3.0901,0,0,3.0813,3.0827,3.0819,3.0819,3.0825,3.0814,3.0793,3.0785,3.0777,3.0775,3.0756,3.0738,3.0758,3.0753,3.0767,3.0749,3.0698,3.0772,3.0772,3.0756,3.0645,3.0628,3.0618,3.0711,3.0709,3.0708,3.0645,0,3.0752,3.0718,3.0739,3.0701,3.0688,3.0719,3.07,3.0701,3.0709,3.0697,3.0706,3.0692,3.072,3.0717,3.0701,3.0707,3.0675,3.0713,3.0692,3.0691,3.0689,3.0607,3.0589,3.0529,3.0637,3.0636,3.0635,0,3.0676,3.0672,3.0634,3.0643,3.0638,3.0621,3.0615,3.0605,3.0606,3.0613,3.0609,3.0627,3.0606,3.0638,3.0608,3.0632,3.0625,3.0628,3.0626,3.0623,3.0658,3.06,3.051,3.0501,3.0622,3.0623,3.0624,0,3.0609,3.0594,3.0569,3.0569,3.0579,3.0566,3.0569,3.0573,3.0567,3.0561,3.0557,3.0549,3.0544,3.0536,3.0552,3.0574,3.0518,3.0552,3.0522,3.0521,3.0507,3.0507,3.0413,3.0505,3.0505,3.0506,3.0506,0,3.0537,3.0512,3.054,3.0524,3.0496,3.052,3.0491,3.0497,3.05,3.0485,3.0511,3.0496,3.0518,3.0505,3.0517,3.0489,3.0487,3.049,3.0493,3.0487,3.0486,3.0481,3.0485,3.0503,3.0504,3.0504,3.0505,0,3.0456,3.0474,3.0449,3.0461,3.0464,3.0442,3.0452,3.0437,3.0448,3.0428,3.0425,3.0441,3.0427,3.0442,3.0428,3.0436,3.0398,3.0408,3.0398,3.04,3.0368,3.037,3.0265,3.0252,3.0355,3.0354,3.0353,0,3.0409,3.039,3.0401,3.0394,3.0396,3.0384,3.0378,3.0401,3.0393,3.0394,3.0378,3.0367,3.0359,3.0334,3.0343,3.0332,3.0341,3.0305,3.034,3.0334,3.0339,3.0339,3.0336,3.0297,3.0296,3.0295,3.0295,0,3.0321,3.0331,3.0323,3.0318,3.0312,3.0308,3.0307,3.0299,3.0322,3.0312,3.0299,3.0293,3.028,3.0267,3.026,3.0261,3.0281,3.0284,3.0276,3.0268,3.0263,3.0264,3.0377,3.0286,3.0287,3.0287,3.0288,3.0288,3.0255,3.0239,3.0245,3.0235,3.0237,3.0235,3.0221,3.0231,3.0221,3.0213,3.0227,3.0209,3.0211,3.0203,3.0202,3.0188,3.0203,3.0192,3.0189,3.0185,3.018,3.0267,3.0187,3.0187,3.0187,3.0187,3.0188,0,3.0167,3.0173,3.0164,3.0161,3.0153,3.0175,3.0175,3.0166,3.0151,3.0152,3.0144,3.0128,3.0116,3.0125,3.0114,3.0101,3.0109,3.0097,3.0097,3.0097,3.0168,3.0175,3.009,3.009,3.009,3.009,3.009,3.009,3.0121,3.0096,3.0107,3.0083,3.0088,3.0073,3.007,3.0068,3.0069,3.0051,3.0041,3.0048,3.0051,3.0042,3.0031,3.0034,3.0028,3.0012,3.0017,3.0083,3.0092,3.0101,3.0108,3.0011,3.0011,2.9948,2.9947,2.9947]}]]